Time,TemperatureF,DewpointF,PressureIn,WindDirection,WindDirectionDegrees,WindSpeedMPH,WindSpeedGustMPH,Humidity,HourlyPrecipIn,Conditions,Clouds,dailyrainin,SoftwareType,DateUTC
2013-02-28 00:01:00,44.4,42.0,30.27,NE,49,1.0,2.0,90,0.00,,,0.00,weatherlink.com 1.10,2013-02-28 08:01:00,
2013-02-28 00:16:00,43.9,41.0,30.28,NNW,342,0.0,1.0,89,0.00,,,0.00,weatherlink.com 1.10,2013-02-28 08:16:00,
2013-02-28 00:31:00,43.3,41.0,30.28,North,11,0.0,1.0,91,0.00,,,0.00,weatherlink.com 1.10,2013-02-28 08:31:00,
2013-02-28 00:46:00,43.3,41.0,30.28,NE,53,2.0,2.0,91,0.00,,,0.00,weatherlink.com 1.10,2013-02-28 08:46:00,
2013-02-28 01:01:00,43.1,41.0,30.28,NE,51,1.0,2.0,91,0.00,,,0.00,weatherlink.com 1.10,2013-02-28 09:01:00,
2013-02-28 01:16:00,42.8,40.0,30.28,NE,44,2.0,2.0,91,0.00,,,0.00,weatherlink.com 1.10,2013-02-28 09:16:00,
2013-02-28 01:31:00,42.5,40.0,30.28,NE,42,2.0,2.0,92,0.00,,,0.00,weatherlink.com 1.10,2013-02-28 09:31:00,
2013-02-28 01:46:00,42.2,40.0,30.28,NNE,30,1.0,2.0,92,0.00,,,0.00,weatherlink.com 1.10,2013-02-28 09:46:00,
2013-02-28 02:01:00,42.0,40.0,30.28,NE,44,0.0,2.0,92,0.00,,,0.00,weatherlink.com 1.10,2013-02-28 10:01:00,
2013-02-28 02:17:00,41.7,40.0,30.28,ENE,71,0.0,1.0,92,0.00,,,0.00,weatherlink.com 1.10,2013-02-28 10:17:00,
2013-02-28 02:32:00,41.8,40.0,30.28,NNE,25,1.0,1.0,93,0.00,,,0.00,weatherlink.com 1.10,2013-02-28 10:32:00,
2013-02-28 02:47:00,41.4,39.0,30.28,NNW,332,0.0,2.0,92,0.00,,,0.00,weatherlink.com 1.10,2013-02-28 10:47:00,
2013-02-28 03:02:00,41.7,40.0,30.28,NNE,22,0.0,2.0,93,0.00,,,0.00,weatherlink.com 1.10,2013-02-28 11:02:00,
2013-02-28 03:17:00,41.9,40.0,30.27,NE,36,1.0,1.0,93,0.00,,,0.00,weatherlink.com 1.10,2013-02-28 11:17:00,
2013-02-28 03:32:00,41.4,40.0,30.27,ENE,59,1.0,2.0,93,0.00,,,0.00,weatherlink.com 1.10,2013-02-28 11:32:00,
2013-02-28 03:47:00,41.7,40.0,30.27,NE,36,1.0,1.0,93,0.00,,,0.00,weatherlink.com 1.10,2013-02-28 11:47:00,
2013-02-28 04:02:00,41.8,40.0,30.28,North,1,0.0,3.0,93,0.00,,,0.00,weatherlink.com 1.10,2013-02-28 12:02:00,
2013-02-28 04:17:00,41.5,40.0,30.28,WNW,302,0.0,1.0,93,0.00,,,0.00,weatherlink.com 1.10,2013-02-28 12:17:00,
2013-02-28 04:32:00,42.0,40.0,30.29,NE,44,1.0,1.0,94,0.00,,,0.00,weatherlink.com 1.10,2013-02-28 12:32:00,
2013-02-28 04:47:00,41.8,40.0,30.29,NE,46,1.0,2.0,93,0.00,,,0.00,weatherlink.com 1.10,2013-02-28 12:47:00,
2013-02-28 05:02:00,41.5,40.0,30.29,ENE,59,0.0,2.0,93,0.00,,,0.00,weatherlink.com 1.10,2013-02-28 13:02:00,
2013-02-28 05:17:00,41.2,40.0,30.28,ENE,64,1.0,1.0,94,0.00,,,0.00,weatherlink.com 1.10,2013-02-28 13:17:00,
2013-02-28 05:32:00,41.3,40.0,30.29,NE,44,0.0,2.0,94,0.00,,,0.00,weatherlink.com 1.10,2013-02-28 13:32:00,
2013-02-28 05:47:00,41.6,40.0,30.30,NE,43,1.0,2.0,94,0.00,,,0.00,weatherlink.com 1.10,2013-02-28 13:47:00,
2013-02-28 06:02:00,41.5,40.0,30.30,NNE,22,0.0,4.0,94,0.00,,,0.00,weatherlink.com 1.10,2013-02-28 14:02:00,
2013-02-28 06:17:00,41.7,40.0,30.30,NE,53,0.0,2.0,94,0.00,,,0.00,weatherlink.com 1.10,2013-02-28 14:17:00,
2013-02-28 06:32:00,41.5,40.0,30.31,NE,42,1.0,3.0,94,0.00,,,0.00,weatherlink.com 1.10,2013-02-28 14:32:00,
2013-02-28 06:46:00,41.7,40.0,30.32,NNE,12,1.0,3.0,94,0.00,,,0.00,weatherlink.com 1.10,2013-02-28 14:46:00,
2013-02-28 07:02:00,41.7,40.0,30.32,NNE,29,0.0,1.0,94,0.00,,,0.00,weatherlink.com 1.10,2013-02-28 15:02:00,
2013-02-28 07:17:00,42.2,41.0,30.32,NE,34,0.0,2.0,94,0.00,,,0.00,weatherlink.com 1.10,2013-02-28 15:17:00,
2013-02-28 07:31:00,43.7,42.0,30.33,ENE,78,0.0,1.0,94,0.00,,,0.00,weatherlink.com 1.10,2013-02-28 15:31:00,
2013-02-28 07:46:00,44.9,43.0,30.33,ENE,75,0.0,1.0,91,0.00,,,0.00,weatherlink.com 1.10,2013-02-28 15:46:00,
2013-02-28 08:01:00,46.0,43.0,30.34,NNE,22,0.0,2.0,89,0.00,,,0.00,weatherlink.com 1.10,2013-02-28 16:01:00,
2013-02-28 08:16:00,48.4,44.0,30.34,East,86,0.0,1.0,86,0.00,,,0.00,weatherlink.com 1.10,2013-02-28 16:16:00,
2013-02-28 08:31:00,51.9,46.0,30.34,SE,143,1.0,1.0,80,0.00,,,0.00,weatherlink.com 1.10,2013-02-28 16:31:00,
2013-02-28 08:47:00,53.0,47.0,30.35,SW,219,0.0,1.0,79,0.00,,,0.00,weatherlink.com 1.10,2013-02-28 16:47:00,
2013-02-28 09:02:00,55.3,48.0,30.35,ESE,121,0.0,2.0,75,0.00,,,0.00,weatherlink.com 1.10,2013-02-28 17:02:00,
2013-02-28 09:17:00,56.0,47.0,30.34,East,98,1.0,3.0,72,0.00,,,0.00,weatherlink.com 1.10,2013-02-28 17:17:00,
2013-02-28 09:32:00,56.0,47.0,30.35,WSW,243,4.0,5.0,73,0.00,,,0.00,weatherlink.com 1.10,2013-02-28 17:32:00,
2013-02-28 09:47:00,56.3,47.0,30.35,SSW,204,3.0,4.0,72,0.00,,,0.00,weatherlink.com 1.10,2013-02-28 17:47:00,
2013-02-28 10:02:00,57.6,47.0,30.35,SSW,197,0.0,4.0,69,0.00,,,0.00,weatherlink.com 1.10,2013-02-28 18:02:00,
2013-02-28 10:17:00,57.8,47.0,30.35,SSW,204,3.0,5.0,68,0.00,,,0.00,weatherlink.com 1.10,2013-02-28 18:17:00,
2013-02-28 10:32:00,57.4,48.0,30.35,East,89,4.0,5.0,71,0.00,,,0.00,weatherlink.com 1.10,2013-02-28 18:32:00,
2013-02-28 10:47:00,58.2,48.0,30.35,WSW,243,2.0,5.0,68,0.00,,,0.00,weatherlink.com 1.10,2013-02-28 18:47:00,
2013-02-28 11:02:00,59.0,48.0,30.35,SW,225,5.0,6.0,66,0.00,,,0.00,weatherlink.com 1.10,2013-02-28 19:02:00,
2013-02-28 11:17:00,58.9,46.0,30.34,West,274,1.0,6.0,63,0.00,,,0.00,weatherlink.com 1.10,2013-02-28 19:17:00,
2013-02-28 11:32:00,60.4,46.0,30.34,SW,228,1.0,4.0,60,0.00,,,0.00,weatherlink.com 1.10,2013-02-28 19:32:00,
2013-02-28 11:47:00,60.7,46.0,30.33,West,259,1.0,6.0,59,0.00,,,0.00,weatherlink.com 1.10,2013-02-28 19:47:00,
2013-02-28 12:02:00,61.3,47.0,30.33,SW,215,1.0,6.0,59,0.00,,,0.00,weatherlink.com 1.10,2013-02-28 20:02:00,
2013-02-28 12:17:00,61.2,47.0,30.32,SW,231,2.0,6.0,59,0.00,,,0.00,weatherlink.com 1.10,2013-02-28 20:17:00,
2013-02-28 12:32:00,62.0,47.0,30.31,SSW,195,3.0,4.0,59,0.00,,,0.00,weatherlink.com 1.10,2013-02-28 20:32:00,
2013-02-28 12:47:00,63.5,48.0,30.30,SSW,195,2.0,5.0,58,0.00,,,0.00,weatherlink.com 1.10,2013-02-28 20:47:00,
2013-02-28 13:02:00,63.1,50.0,30.29,ESE,110,1.0,6.0,62,0.00,,,0.00,weatherlink.com 1.10,2013-02-28 21:02:00,
2013-02-28 13:17:00,63.2,48.0,30.29,SSW,204,3.0,7.0,59,0.00,,,0.00,weatherlink.com 1.10,2013-02-28 21:17:00,
2013-02-28 13:32:00,61.6,50.0,30.29,SW,215,2.0,6.0,66,0.00,,,0.00,weatherlink.com 1.10,2013-02-28 21:32:00,
2013-02-28 13:48:00,62.8,51.0,30.29,SSE,150,3.0,5.0,65,0.00,,,0.00,weatherlink.com 1.10,2013-02-28 21:48:00,
2013-02-28 14:03:00,64.0,51.0,30.28,SE,131,3.0,5.0,63,0.00,,,0.00,weatherlink.com 1.10,2013-02-28 22:03:00,
2013-02-28 14:18:00,64.5,49.0,30.27,ESE,108,2.0,5.0,57,0.00,,,0.00,weatherlink.com 1.10,2013-02-28 22:18:00,
2013-02-28 14:33:00,66.4,51.0,30.27,SW,225,3.0,5.0,57,0.00,,,0.00,weatherlink.com 1.10,2013-02-28 22:33:00,
2013-02-28 14:48:00,67.9,50.0,30.27,WSW,238,1.0,4.0,54,0.00,,,0.00,weatherlink.com 1.10,2013-02-28 22:48:00,
2013-02-28 15:03:00,68.6,51.0,30.27,South,183,4.0,5.0,54,0.00,,,0.00,weatherlink.com 1.10,2013-02-28 23:03:00,
2013-02-28 15:18:00,67.0,52.0,30.27,SSE,158,3.0,5.0,59,0.00,,,0.00,weatherlink.com 1.10,2013-02-28 23:18:00,
2013-02-28 15:33:00,65.3,52.0,30.26,South,180,2.0,6.0,62,0.00,,,0.00,weatherlink.com 1.10,2013-02-28 23:33:00,
2013-02-28 15:48:00,65.2,52.0,30.26,SW,219,1.0,4.0,63,0.00,,,0.00,weatherlink.com 1.10,2013-02-28 23:48:00,
2013-02-28 16:03:00,64.9,53.0,30.26,SSE,166,1.0,4.0,65,0.00,,,0.00,weatherlink.com 1.10,2013-03-01 00:03:00,
2013-02-28 16:18:00,64.8,53.0,30.26,SE,145,2.0,4.0,65,0.00,,,0.00,weatherlink.com 1.10,2013-03-01 00:18:00,
2013-02-28 16:33:00,65.2,53.0,30.26,WSW,243,2.0,6.0,65,0.00,,,0.00,weatherlink.com 1.10,2013-03-01 00:33:00,
2013-02-28 16:48:00,63.4,52.0,30.26,SSE,166,3.0,5.0,67,0.00,,,0.00,weatherlink.com 1.10,2013-03-01 00:48:00,
2013-02-28 17:03:00,63.3,53.0,30.26,SSW,201,3.0,5.0,69,0.00,,,0.00,weatherlink.com 1.10,2013-03-01 01:03:00,
2013-02-28 17:19:00,60.3,52.0,30.26,SE,136,1.0,5.0,74,0.00,,,0.00,weatherlink.com 1.10,2013-03-01 01:19:00,
2013-02-28 17:33:00,58.4,52.0,30.26,SE,125,0.0,3.0,79,0.00,,,0.00,weatherlink.com 1.10,2013-03-01 01:33:00,
2013-02-28 17:48:00,57.3,52.0,30.27,ENE,70,2.0,2.0,82,0.00,,,0.00,weatherlink.com 1.10,2013-03-01 01:48:00,
2013-02-28 18:18:00,56.0,52.0,30.27,SW,225,0.0,1.0,85,0.00,,,0.00,weatherlink.com 1.10,2013-03-01 02:18:00,
2013-02-28 18:33:00,55.3,52.0,30.28,SSW,208,0.0,2.0,87,0.00,,,0.00,weatherlink.com 1.10,2013-03-01 02:33:00,
2013-02-28 18:48:00,54.7,51.0,30.29,SSW,203,0.0,3.0,88,0.00,,,0.00,weatherlink.com 1.10,2013-03-01 02:48:00,
2013-02-28 19:03:00,54.2,51.0,30.29,SW,225,0.0,3.0,90,0.00,,,0.00,weatherlink.com 1.10,2013-03-01 03:03:00,
2013-02-28 19:18:00,53.6,51.0,30.30,WSW,239,1.0,3.0,91,0.00,,,0.00,weatherlink.com 1.10,2013-03-01 03:18:00,
2013-02-28 19:33:00,52.9,50.0,30.30,SW,215,0.0,1.0,91,0.00,,,0.00,weatherlink.com 1.10,2013-03-01 03:33:00,
2013-02-28 19:48:00,52.6,50.0,30.31,SSW,197,0.0,2.0,92,0.00,,,0.00,weatherlink.com 1.10,2013-03-01 03:48:00,
2013-02-28 20:03:00,52.1,50.0,30.31,SW,214,0.0,1.0,92,0.00,,,0.00,weatherlink.com 1.10,2013-03-01 04:03:00,
2013-02-28 20:18:00,51.7,50.0,30.32,SE,134,0.0,1.0,92,0.00,,,0.00,weatherlink.com 1.10,2013-03-01 04:18:00,
2013-02-28 20:34:00,50.9,49.0,30.32,SE,134,0.0,0.0,93,0.00,,,0.00,weatherlink.com 1.10,2013-03-01 04:34:00,
2013-02-28 20:49:00,50.6,49.0,30.32,SE,134,0.0,0.0,94,0.00,,,0.00,weatherlink.com 1.10,2013-03-01 04:49:00,
2013-02-28 21:04:00,50.1,49.0,30.33,SE,134,0.0,0.0,94,0.00,,,0.00,weatherlink.com 1.10,2013-03-01 05:04:00,
2013-02-28 21:19:00,50.0,48.0,30.33,SE,132,0.0,1.0,94,0.00,,,0.00,weatherlink.com 1.10,2013-03-01 05:19:00,
2013-02-28 21:34:00,49.5,48.0,30.33,NNE,27,0.0,1.0,95,0.00,,,0.00,weatherlink.com 1.10,2013-03-01 05:34:00,
2013-02-28 21:49:00,49.1,48.0,30.33,NE,54,0.0,1.0,95,0.00,,,0.00,weatherlink.com 1.10,2013-03-01 05:49:00,
2013-02-28 22:04:00,48.9,48.0,30.33,NE,54,0.0,1.0,95,0.00,,,0.00,weatherlink.com 1.10,2013-03-01 06:04:00,
2013-02-28 22:19:00,48.7,47.0,30.33,NNE,18,2.0,3.0,95,0.00,,,0.00,weatherlink.com 1.10,2013-03-01 06:19:00,
2013-02-28 22:34:00,48.7,47.0,30.33,ENE,77,0.0,1.0,95,0.00,,,0.00,weatherlink.com 1.10,2013-03-01 06:34:00,
2013-02-28 22:49:00,48.2,47.0,30.33,NE,36,0.0,1.0,95,0.00,,,0.00,weatherlink.com 1.10,2013-03-01 06:49:00,
2013-02-28 23:04:00,48.0,47.0,30.33,NNE,23,0.0,1.0,96,0.00,,,0.00,weatherlink.com 1.10,2013-03-01 07:04:00,
2013-02-28 23:19:00,48.1,47.0,30.33,NNE,23,0.0,1.0,96,0.00,,,0.00,weatherlink.com 1.10,2013-03-01 07:19:00,
2013-02-28 23:34:00,48.2,47.0,30.33,NNE,23,0.0,1.0,96,0.00,,,0.00,weatherlink.com 1.10,2013-03-01 07:34:00,
2013-02-28 23:49:00,47.8,47.0,30.33,NNE,23,0.0,0.0,95,0.00,,,0.00,weatherlink.com 1.10,2013-03-01 07:49:00,